Location: Unspecified
(0.0000°N, 0.0000°E)
Time: 09:24:01
(UTC+00:00)

Hubble Space Telescope - Pass Details

Date: 04 July 2018
Orbit: 536 x 540 km, 28.5° (Epoch: 19 October)

Event Time Altitude Azimuth Distance (km) Brightness Sun altitude
Exits shadow 05:30:21 10° 247° (WSW) 1,799 2.7 -7.8°
Reaches altitude 10° 05:30:25 10° 248° (WSW) 1,778 2.7 -7.8°
Maximum altitude 05:34:29 65° 330° (NNW) 585 0.9 -6.9°
Drops below altitude 10° 05:38:34 10° 52° (NE) 1,775 5.0 -6.0°
Sets 05:40:50 0° 55° (NE) 2,665 6.4 -5.4°
